Location: Pel�-Koumbol�
(14.9505°N, 3.0798°W)
Time: 13:59:40
(UTC+00:00)

Atlas Centaur 2 - Pass Details

Date: 17 February 2020
Orbit: 459 x 1310 km, 30.4° (Epoch: 04 April)

Event Time Altitude Azimuth Distance (km) Brightness Sun altitude
Exits shadow 04:45:51 33° 220° (SW) 1,994 3.8 -27.1°
Maximum altitude 04:49:56 66° 149° (SSE) 1,397 3.3 -26.1°
Drops below altitude 10° 04:58:22 10° 68° (ENE) 3,290 6.1 -24.1°
Sets 05:01:17 0° 66° (ENE) 4,214 6.8 -23.4°
